| time (UTC) | temp C | wind direction | speed KPH | gust KPH | rain 1hr cm | rain 24hr cm | rain mn cm | humidity % | barometer mb |
| 20260506123511 | 21 | 360 | 0.0 | 0.0 | 0.00 | 0.36 | 0.00 | 51 | 1001.6 |
| 20260506122510 | 21 | 360 | 0.0 | 0.0 | 0.00 | 0.36 | 0.00 | 53 | 1001.7 |
| 20260506121510 | 21 | 360 | 0.0 | 0.0 | 0.00 | 0.36 | 0.00 | 53 | 1001.7 |
| 20260506120509 | 21 | 360 | 0.0 | 0.0 | 0.00 | 0.36 | 0.00 | 53 | 1001.7 |
| 20260506115510 | 21 | 360 | 0.0 | 0.0 | 0.00 | 0.36 | 0.00 | 54 | 1001.6 |
| 20260506113509 | 20 | 360 | 0.0 | 0.0 | 0.00 | 0.36 | 0.00 | 56 | 1001.9 |
| 20260506112509 | 20 | 360 | 0.0 | 0.0 | 0.00 | 0.36 | 0.00 | 57 | 1001.9 |
| 20260506111509 | 20 | 360 | 0.0 | 0.0 | 0.00 | 0.36 | 0.00 | 58 | 1002.0 |
| 20260506110509 | 19 | 360 | 0.0 | 0.0 | 0.00 | 0.36 | 0.00 | 58 | 1002.0 |
| 20260506105509 | 19 | 360 | 0.0 | 0.0 | 0.00 | 0.36 | 0.00 | 58 | 1002.1 |
| 20260506104509 | 19 | 360 | 0.0 | 0.0 | 0.00 | 0.36 | 0.00 | 59 | 1002.0 |
| 20260506103509 | 18 | 360 | 0.0 | 0.0 | 0.00 | 0.36 | 0.00 | 59 | 1002.2 |
| 20260506102509 | 19 | 360 | 0.0 | 0.0 | 0.00 | 0.36 | 0.00 | 60 | 1002.1 |
| 20260506101509 | 18 | 360 | 0.0 | 0.0 | 0.00 | 0.36 | 0.00 | 61 | 1002.2 |
| 20260506100509 | 18 | 360 | 0.0 | 0.0 | 0.00 | 0.36 | 0.00 | 61 | 1002.2 |
| 20260506094514 | 17 | 360 | 0.0 | 0.0 | 0.00 | 0.36 | 0.00 | 64 | 1002.6 |
| 20260506093514 | 17 | 360 | 0.0 | 0.0 | 0.00 | 0.36 | 0.00 | 64 | 1002.6 |
| 20260506092514 | 17 | 360 | 0.0 | 0.0 | 0.00 | 0.36 | 0.00 | 64 | 1002.5 |
| 20260506091514 | 17 | 360 | 0.0 | 0.0 | 0.00 | 0.36 | 0.00 | 67 | 1002.6 |
| 20260506090513 | 16 | 360 | 0.0 | 0.0 | 0.00 | 0.36 | 0.00 | 68 | 1002.7 |
| 20260506084513 | 16 | 360 | 0.0 | 0.0 | 0.00 | 0.36 | 0.00 | 67 | 1002.7 |
| 20260506082513 | 16 | 360 | 0.0 | 0.0 | 0.00 | 0.36 | 0.00 | 70 | 1002.7 |
| 20260506081513 | 16 | 360 | 0.0 | 0.0 | 0.00 | 0.36 | 0.00 | 71 | 1002.9 |
| 20260506080513 | 16 | 360 | 0.0 | 0.0 | 0.00 | 0.36 | 0.00 | 71 | 1003.0 |
| 20260506073513 | 16 | 360 | 0.0 | 0.0 | 0.00 | 0.36 | 0.00 | 72 | 1001.8 |
| 20260506072513 | 16 | 360 | 0.0 | 0.0 | 0.00 | 0.36 | 0.00 | 73 | 1001.9 |
| 20260506071513 | 15 | 360 | 0.0 | 0.0 | 0.00 | 0.36 | 0.00 | 73 | 1001.9 |
| 20260506070513 | 15 | 360 | 0.0 | 0.0 | 0.00 | 0.36 | 0.00 | 75 | 1001.9 |
| 20260506062513 | 13 | 360 | 0.0 | 0.0 | 0.00 | 0.36 | 0.00 | 82 | 1002.3 |
| 20260506061513 | 13 | 360 | 0.0 | 0.0 | 0.00 | 0.36 | 0.00 | 83 | 1002.6 |
| 20260506060512 | 12 | 360 | 0.0 | 0.0 | 0.00 | 0.36 | 0.00 | 83 | 1003.8 |
| 20260506050512 | 12 | 360 | 0.0 | 0.0 | 0.00 | 0.36 | 0.00 | 86 | 1003.9 |
| 20260506044512 | 12 | 360 | 0.0 | 0.0 | 0.00 | 0.36 | 0.00 | 87 | 1002.9 |
| 20260506042512 | 12 | 360 | 0.0 | 0.0 | 0.00 | 0.36 | 0.00 | 87 | 1002.9 |
| 20260506041512 | 12 | 360 | 0.0 | 0.0 | 0.00 | 0.36 | 0.00 | 87 | 1002.9 |
| 20260506035511 | 11 | 360 | 0.0 | 0.0 | 0.00 | 0.36 | 0.00 | 87 | 1002.9 |
| 20260506034511 | 11 | 360 | 0.0 | 0.0 | 0.00 | 0.36 | 0.00 | 87 | 1002.9 |
| 20260506033511 | 11 | 360 | 0.0 | 0.0 | 0.00 | 0.36 | 0.00 | 87 | 1002.9 |
| 20260506032511 | 11 | 360 | 0.0 | 0.0 | 0.00 | 0.36 | 0.00 | 87 | 1002.9 |
| 20260506031511 | 11 | 360 | 0.0 | 0.0 | 0.00 | 0.36 | 0.00 | 86 | 1002.9 |
| 20260506030511 | 11 | 360 | 0.0 | 0.0 | 0.00 | 0.36 | 0.00 | 86 | 1003.0 |
| 20260506025512 | 11 | 360 | 0.0 | 0.0 | 0.00 | 0.36 | 0.00 | 86 | 1003.0 |
| 20260506023511 | 11 | 360 | 0.0 | 0.0 | 0.00 | 0.36 | 0.00 | 86 | 1003.0 |
| 20260506021511 | 11 | 360 | 0.0 | 0.0 | 0.00 | 0.36 | 0.00 | 86 | 1003.0 |
| 20260506020511 | 11 | 360 | 0.0 | 0.0 | 0.00 | 0.36 | 0.00 | 85 | 1003.0 |
| 20260506015511 | 11 | 360 | 0.0 | 0.0 | 0.00 | 0.36 | 0.00 | 85 | 1002.9 |
| 20260506014510 | 11 | 360 | 0.0 | 0.0 | 0.00 | 0.36 | 0.00 | 85 | 1002.9 |
| 20260506013511 | 11 | 360 | 0.0 | 0.0 | 0.00 | 0.36 | 0.00 | 85 | 1002.9 |
| 20260506012510 | 12 | 360 | 0.0 | 0.0 | 0.00 | 0.36 | 0.00 | 85 | 1002.9 |
| 20260506011511 | 12 | 360 | 0.0 | 0.0 | 0.00 | 0.36 | 0.00 | 85 | 1004.0 |
| 20260506010510 | 12 | 360 | 0.0 | 0.0 | 0.00 | 0.36 | 0.00 | 85 | 1004.0 |
| 20260506004510 | 12 | 360 | 0.0 | 0.0 | 0.00 | 0.36 | 0.00 | 85 | 1003.9 |
| 20260506003510 | 12 | 360 | 0.0 | 0.0 | 0.00 | 0.36 | 0.00 | 86 | 1002.8 |
| 20260506002510 | 11 | 360 | 0.0 | 0.0 | 0.00 | 0.36 | 0.00 | 86 | 1002.9 |
| 20260506001510 | 12 | 360 | 0.0 | 0.0 | 0.00 | 0.36 | 0.00 | 86 | 1004.0 |
| 20260506000510 | 11 | 360 | 0.0 | 0.0 | 0.00 | 0.36 | 0.00 | 86 | 1004.0 |
| 20260505235510 | 11 | 360 | 0.0 | 0.0 | 0.00 | 0.36 | 0.00 | 86 | 1004.0 |
| 20260505234510 | 11 | 360 | 0.0 | 0.0 | 0.00 | 0.36 | 0.00 | 86 | 1004.0 |
| 20260505232510 | 11 | 360 | 0.0 | 0.0 | 0.00 | 0.36 | 0.00 | 86 | 1004.0 |
| 20260505230510 | 11 | 360 | 0.0 | 0.0 | 0.00 | 0.36 | 0.00 | 86 | 1004.0 |
| 20260505225509 | 11 | 360 | 0.0 | 0.0 | 0.00 | 0.36 | 0.00 | 86 | 1004.0 |
| 20260505224509 | 11 | 360 | 0.0 | 0.0 | 0.00 | 0.36 | 0.00 | 86 | 1004.0 |
| 20260505222510 | 11 | 360 | 0.0 | 0.0 | 0.00 | 0.36 | 0.00 | 86 | 1004.0 |
| 20260505220509 | 11 | 360 | 0.0 | 0.0 | 0.00 | 0.36 | 0.00 | 86 | 1004.0 |
| 20260505215509 | 11 | 360 | 0.0 | 0.0 | 0.00 | 0.36 | 0.36 | 86 | 1004.1 |
| 20260505214509 | 11 | 360 | 0.0 | 0.0 | 0.00 | 0.36 | 0.36 | 85 | 1004.1 |
| 20260505213509 | 11 | 360 | 0.0 | 0.0 | 0.00 | 0.36 | 0.36 | 85 | 1004.0 |
| 20260505212509 | 11 | 360 | 0.0 | 0.0 | 0.00 | 0.36 | 0.36 | 85 | 1004.0 |
| 20260505210509 | 11 | 360 | 0.0 | 0.0 | 0.00 | 0.36 | 0.36 | 85 | 1004.1 |
| 20260505205509 | 11 | 360 | 0.0 | 0.0 | 0.00 | 0.36 | 0.36 | 85 | 1004.1 |
| 20260505204509 | 11 | 360 | 0.0 | 0.0 | 0.00 | 0.36 | 0.36 | 85 | 1004.1 |
| 20260505203509 | 11 | 360 | 0.0 | 0.0 | 0.05 | 0.36 | 0.36 | 84 | 1004.2 |
| 20260505202514 | 11 | 360 | 0.0 | 0.0 | 0.05 | 0.36 | 0.36 | 84 | 1004.2 |
| 20260505201514 | 11 | 360 | 0.0 | 0.0 | 0.10 | 0.36 | 0.36 | 84 | 1004.1 |
| 20260505200514 | 11 | 360 | 0.0 | 0.0 | 0.15 | 0.36 | 0.36 | 83 | 1004.1 |
| 20260505195514 | 11 | 360 | 0.0 | 0.0 | 0.20 | 0.36 | 0.36 | 83 | 1004.1 |
| 20260505193513 | 12 | 360 | 0.0 | 0.0 | 0.25 | 0.30 | 0.30 | 82 | 1003.9 |
| 20260505192513 | 12 | 360 | 0.0 | 0.0 | 0.30 | 0.30 | 0.30 | 81 | 1003.9 |
| 20260505191513 | 12 | 360 | 0.0 | 0.0 | 0.25 | 0.25 | 0.25 | 80 | 1003.9 |
| 20260505190513 | 12 | 360 | 0.0 | 0.0 | 0.20 | 0.20 | 0.20 | 79 | 1004.9 |
| 20260505185513 | 12 | 360 | 0.0 | 0.0 | 0.15 | 0.15 | 0.15 | 78 | 1004.8 |
| 20260505184513 | 12 | 360 | 0.0 | 0.0 | 0.10 | 0.10 | 0.10 | 77 | 1004.8 |
| 20260505183513 | 13 | 360 | 0.0 | 0.0 | 0.05 | 0.05 | 0.05 | 75 | 1004.7 |
| 20260505182513 | 14 | 360 | 0.0 | 0.0 | 0.00 | 0.00 | 0.00 | 73 | 1004.5 |
| 20260505181513 | 15 | 360 | 0.0 | 0.0 | 0.00 | 0.00 | 0.00 | 72 | 1004.1 |
| 20260505180513 | 15 | 360 | 0.0 | 0.0 | 0.00 | 0.00 | 0.00 | 73 | 1003.0 |
| 20260505173513 | 16 | 360 | 0.0 | 0.0 | 0.00 | 0.00 | 0.00 | 72 | 1001.8 |
| 20260505172513 | 16 | 360 | 0.0 | 0.0 | 0.00 | 0.00 | 0.00 | 71 | 1001.8 |
| 20260505171513 | 16 | 360 | 0.0 | 0.0 | 0.00 | 0.00 | 0.00 | 71 | 1001.8 |
| 20260505170513 | 16 | 360 | 0.0 | 0.0 | 0.00 | 0.00 | 0.00 | 69 | 1001.7 |
| 20260505165513 | 16 | 360 | 0.0 | 0.0 | 0.00 | 0.00 | 0.00 | 68 | 1001.6 |
| 20260505164513 | 17 | 360 | 0.0 | 0.0 | 0.00 | 0.00 | 0.00 | 68 | 1002.7 |
| 20260505162513 | 17 | 360 | 0.0 | 0.0 | 0.00 | 0.00 | 0.00 | 66 | 1002.5 |
| 20260505161512 | 17 | 360 | 0.0 | 0.0 | 0.00 | 0.00 | 0.00 | 66 | 1002.5 |
| 20260505160512 | 17 | 360 | 0.0 | 0.0 | 0.00 | 0.00 | 0.00 | 65 | 1002.5 |
| 20260505152512 | 18 | 360 | 0.0 | 0.0 | 0.00 | 0.00 | 0.00 | 61 | 1002.2 |
| 20260505151512 | 19 | 360 | 0.0 | 0.0 | 0.00 | 0.00 | 0.00 | 60 | 1002.1 |
| 20260505150512 | 19 | 360 | 0.0 | 0.0 | 0.00 | 0.00 | 0.00 | 59 | 1002.1 |